This is the latest recevied weather packets stored in our database for station/object K3JSE-2. If no packets are shown the sender has not sent any weather packets the latest 10 day(s).
| Time | Temp. | Humidity | Pressure | Rain* | Wind** | Luminosity | Snow |
|---|---|---|---|---|---|---|---|
| 1778175603 | 16.11° C | 47% | 1009.8 hPa | 0 mm | - | - | - |
| 1778175365 | 16.11° C | 40% | 1009.9 hPa | 0 mm | - | - | - |
| 1778175350 | 16.11° C | 46% | 1009.9 hPa | 0 mm | - | - | - |
| 1778175059 | 15.56° C | 45% | 1010 hPa | 0 mm | - | - | - |
| 1778174803 | 16.11° C | 45% | 1010 hPa | 0 mm | - | - | - |
| 1778174625 | 16.11° C | 47% | 1010.1 hPa | 0 mm | - | - | - |
| 1778174522 | 16.11° C | 41% | 1010.1 hPa | 0 mm | - | - | - |
| 1778174278 | 15.56° C | 44% | 1010.4 hPa | 0 mm | - | - | - |
| 1778174023 | 15° C | 43% | 1010.4 hPa | 0 mm | - | - | - |
| 1778173778 | 15.56° C | 49% | 1010.5 hPa | 0 mm | - | - | - |
| 1778173518 | 15.56° C | 41% | 1010.5 hPa | 0 mm | - | - | - |
| 1778173326 | 15.56° C | 48% | 1010.4 hPa | 0 mm | - | - | - |
| 1778173216 | 15° C | 46% | 1010.4 hPa | 0 mm | - | - | - |
| 1778172938 | 15° C | 42% | 1010.5 hPa | 0 mm | - | - | - |
| 1778172668 | 15° C | 45% | 1010.7 hPa | 0 mm | - | - | - |
| 1778172645 | 15° C | 43% | 1010.7 hPa | 0 mm | - | - | - |
| 1778172392 | 15° C | 46% | 1010.8 hPa | 0 mm | - | - | - |
| 1778172127 | 15° C | 45% | 1010.9 hPa | 0 mm | - | - | - |
| 1778171920 | 14.44° C | 46% | 1010.9 hPa | 0 mm | - | - | - |
| 1778171878 | 14.44° C | 43% | 1010.9 hPa | 0 mm | - | - | - |
| 1778171578 | 14.44° C | 46% | 1011 hPa | 0 mm | - | - | - |
| 1778171294 | 15° C | 51% | 1011 hPa | 0 mm | - | - | - |
| 1778171053 | 14.44° C | 50% | 1011 hPa | 0 mm | - | - | - |
| 1778170798 | 14.44° C | 47% | 1011.1 hPa | 0 mm | - | - | - |
| 1778170543 | 14.44° C | 45% | 1011.2 hPa | 0 mm | - | - | - |
* Rain latest hour (hover to see other rain measurements)
** Current wind speed in m/s (hover to see current wind gust speed)